Flag for Ecuador Weather past 2 weeks in Guayaquil, Ecuador

Now
79 °F

Partly cloudy.


Feels Like: 82 °F
Forecast: 76 / 85 °F
Wind: 2 mph from South

Location: Guayaquil / Simon Bolivar

Current Time: May 28, 2015 at 11:10:50 PM

Latest Report: May 28, 2015 at 10:00 PM


Visibility: N/A

Pressure: 29.89 "Hg

Humidity: 89%

Dew point: 75 °F

Location of GuayaquilLocation

Historic Weather in Guayaquil — Graph

°F

Guayaquil temperature yesterday

Maximum temperature yesterday: 86 °F (at 1:00 PM)
Minimum temperature yesterday: 75 °F (at 6:00 AM)
Average temperature yesterday: 81 °F

Past Weeks' High & Low Weather Summary

 TemperatureHumidityPressure
High91 °F (May 17, 2:00 PM)100% (May 15, 12:00 AM)29.92 "Hg (May 15, 12:00 AM)
Low75 °F (May 15, 12:00 AM)22% (May 27, 9:00 AM)29.68 "Hg (May 14, 3:00 PM)
Average82 °F78%29.83 "Hg
* Reported May 13 9:00 PM — May 28 9:00 PM, Guayaquil, Weather by CustomWeather, © 2015

Note: Actual official high and low records may vary slightly from our data, if they occured in-between our weather recording intervals... More about our weather records

Advertising

Guayaquil weather history for previous 24 hours

 ConditionsComfort  
Time TempWeatherWind HumidityBarometerVisibility
9:00 PM
Thu, May 28
81 °FPassing clouds.3 mph84%29.86 "HgN/A
8:00 PM81 °FPartly cloudy.5 mph79%29.83 "HgN/A
7:00 PM82 °FPassing clouds.5 mph70%29.83 "HgN/A
6:00 PM81 °FPartly sunny.3 mph84%N/AN/A
5:00 PM81 °FLight rain. Broken clouds.6 mph84%29.77 "HgN/A
4:00 PM82 °FLight rain. Partly sunny.6 mph79%29.77 "HgN/A
3:00 PM81 °FDrizzle. Broken clouds.6 mph89%29.80 "HgN/A
2:00 PM81 °FLight rain. Broken clouds.7 mph89%29.83 "HgN/A
1:00 PM82 °FBroken clouds.9 mph79%29.86 "HgN/A
12:00 PM82 °FScattered showers. Partly sunny.7 mph79%29.89 "HgN/A
11:00 AM81 °FBroken clouds.2 mph84%29.89 "HgN/A
10:00 AM81 °FScattered showers. Partly sunny.2 mph79%29.92 "HgN/A
9:00 AM79 °FPartly sunny.3 mph84%N/AN/A
8:00 AM79 °FPartly sunny.6 mph84%29.89 "HgN/A
7:00 AM79 °FScattered showers. Partly sunny.6 mph84%29.86 "HgN/A
6:00 AM77 °FPassing clouds.9 mph89%29.83 "HgN/A
5:00 AM77 °FPassing clouds.8 mph94%29.83 "HgN/A
3:00 AM77 °FPassing clouds.5 mph94%29.83 "HgN/A
2:00 AM77 °FPassing clouds.6 mph94%29.83 "HgN/A
1:00 AM77 °FPassing clouds.7 mph94%29.86 "HgN/A
12:00 AM77 °FPassing clouds.8 mph94%29.86 "HgN/A
11:00 PM
Wed, May 27
77 °FLight rain. Passing clouds.8 mph94%29.86 "Hg5 mi
Weather by CustomWeather, © 2015

See weather overviewHow to use our weather pages